Location: Hohe Wand Kleine Kanzel
(47.8330°N, 16.0170°E)
Time: 06:26:08
(UTC+02:00)

Tiangong - Visible Passes

Search period start: 25 September 2022 00:00
Search period end: 05 October 2022 00:00
Orbit: 377 x 383 km, 41.5° (Epoch: 24 September)

Date Brightness Start Highest point End Pass type
(mag) Time Alt. Az. Time Alt. Az. Time Alt. Az.
25 Sep 0.4 04:30:03 15° SE 04:30:03 15° SE 04:30:53 10° ESE visible
25 Sep -0.3 06:02:10 10° WSW 06:04:26 19° SSW 06:06:44 10° SSE visible
26 Sep -0.4 05:04:02 21° S 05:04:02 21° S 05:05:59 10° SE visible
27 Sep -0.1 05:38:05 14° SSW 05:38:34 15° SSW 05:40:25 10° SSE visible
